Voltar ao catálogo

SL-8 DEB

AtivoLEO
NORAD 2334·DEBRIS·🇷🇺 Russia

Lançado Mar 15, 1965 de Baikonur Cosmodrome

Loading…

Próximas Passagens (próximas 24 horas)

TLE

AtualizadoSource: Space-Track

Época: Sep 14, 2026, 09:17 UTC

1 02334U 65020EH  26257.38696953  .00000404  00000-0  61270-3 0  9993
2 02334  55.6731  49.5683 0584649 161.6760 200.6237 13.12339845862655

Acompanhe SL-8 DEB em tempo real com AllMySat

Download on the App Store